Location: G�kdere
(37.0328°N, 30.9000°E)
Time: 22:03:19
(UTC+00:00)

CZ-2C R/B - Pass Details

Date: 03 March 2021
Orbit: 783 x 871 km, 98.2° (Epoch: 18 April)

Event Time Altitude Azimuth Distance (km) Brightness Sun altitude
Rises 16:21:55 0° 21° (NNE) 3,411 5.6 -6.7°
Reaches altitude 10° 16:24:30 10° 30° (NNE) 2,459 4.8 -7.2°
Maximum altitude 16:29:31 37° 97° (E) 1,259 3.1 -8.2°
Drops below altitude 10° 16:34:23 10° 164° (SSE) 2,390 4.9 -9.1°
Sets 16:36:51 0° 173° (S) 3,304 5.7 -9.6°
